ONEWEB-0572 (55151 NORAD) Tracking and Keplerian Element Data

This shows tracking and keplerian element data for the satellite.

Feedback or suggestion? Click here.




ElementValue
Catalog55151
NameONEWEB-0572
Epoch Orbit1123
Epoch Day85.1693496
Epoch Year2023
RAAN253.61
Inclination86.6221
Eccentricity0.0010315
Argument of Perigee329.4959
Mean Anonmoly30.5653
Mean Motion14.65707883
Decay Rate-9.85E-06
L11 55151U 23004M 23085.16934960 -.00000985 00000+0 -18533-3 0 9998
L22 55151 86.6221 253.6100 0010315 329.4959 30.5653 14.65707883 11230



Live tracking and technical data element details for ONEWEB-0572 (NORAD 55151). ONEWEB-0572 can be tracked NOW for your location showing map with azimuth and elevation plus other details from your city location.







IsCatalogInMostPopularTable: catalog: 55151, numindb: 8
Update: records affected: 1



GetName: 55151 ONEWEB-0572

Hit Count: updated at: Mon, 27 Mar 2023 07:35:12 GMT